Tracking 27107 objects as of 21-Mar-2023
HD Live streaming from Space Station
objects crossing your sky now

ARIANE 5 R/B

Track ARIANE 5 R/B now!


NORAD ID: 37208
Int'l Code: 2010-056C
Perigee: 249.4 km
Apogee: 30,780.5 km
Inclination: 2.2 °
Period: 537.0 minutes
Semi major axis: 21885 km
RCS: 23.4894 m2 (large)
Launch date: October 28, 2010
Source: France (FR)
Launch site: FRENCH GUIANA (FRGUI)

Note: This is a ROCKET BODY
Your satellite tracking list
Your tracking list is empty




NASA's NSSDC Master Catalog

Two Line Element Set (TLE):
1 37208U 10056C   23079.26774675  .00004452  00000-0  80110-3 0  9995
2 37208   2.2464 231.8507 6975066  62.9653 350.3190  2.68135926112812
Source of the keplerian elements: AFSPC